Location: Big Sable Point
(44.0575°N, 86.5149°W)
Time: 19:22:00
(UTC-04:00)

Tiangong 2 - Pass Details

Date: 22 July 2018
Orbit: 384 x 393 km, 42.8° (Epoch: 17 October)

Event Time Altitude Azimuth Distance (km) Brightness Sun altitude
Rises 22:45:58 0° 274° (W) 2,262 5.8 -13.0°
Reaches altitude 10° 22:48:24 10° 256° (WSW) 1,403 4.3 -13.3°
Maximum altitude 22:50:46 20° 208° (SSW) 967 2.9 -13.6°
Enters shadow 22:51:38 18° 185° (S) 1,034 2.8 -13.7°
